Location: Krasnoyarskiy Pitomnik
(51.1333°N, 71.6167°E)
Time: 18:35:11
(UTC+00:00)

Vanguard 2 - Pass Details

Date: 26 April 2024
Orbit: 553 x 2914 km, 32.9° (Epoch: 22 May)

Event Time Altitude Azimuth Distance (km) Brightness Sun altitude
Exits shadow 20:43:12 29° 208° (SSW) 3,755 10.4 -22.0°
Maximum altitude 20:49:01 38° 171° (S) 3,624 10.5 -21.6°
Drops below altitude 10° 21:04:11 10° 113° (ESE) 5,736 12.0 -20.5°
Sets 21:09:04 0° 106° (ESE) 6,697 12.5 -20.1°
